Location: *
(55.6049°S, 142.1985°W)
Time: 08:01:24
(UTC+00:00)

H-2A R/B - Pass Details

Date: 12 May 2021
Orbit: 734 x 836 km, 98.2° (Epoch: 13 June)

Event Time Altitude Azimuth Distance (km) Brightness Sun altitude
Rises 15:50:37 0° 12° (NNE) 3,389 5.7 -11.5°
Reaches altitude 10° 15:52:59 10° 10° (N) 2,457 5.0 -11.2°
Maximum altitude 15:58:28 75° 284° (WNW) 872 2.2 -10.5°
Drops below altitude 10° 16:03:55 10° 198° (SSW) 2,442 4.3 -9.7°
Sets 16:06:16 0° 196° (SSW) 3,367 5.0 -9.4°
